Regional Weather Roundup
Issued by NWS

Home | Current Version | Previous Version | Graphics & Text | Print | Product List | Glossary On
Versions: 1 2 3 4 5 6 7 8 9 10 11 12 13 14 15 16 17 18 19 20 21 22 23 24 25 26 27 28 29 30 31 32 33 34 35 36 37 38 39 40 41 42 43 44 45 46 47 48 49 50
000
ASUS43 KBIS 191710
RWRND
NORTH DAKOTA REGIONAL WEATHER ROUNDUP
NATIONAL WEATHER SERVICE EASTERN NORTH DAKOTA/GRAND FORKS ND
1200 PM CDT THU APR 19 2018

  NOTE: "FAIR" INDICATES FEW OR NO CLOUDS BELOW 12,000 FEET WITH NO
  SIGNIFICANT WEATHER AND/OR OBSTRUCTIONS TO VISIBILITY.

NDZ001>003-009>011-017-191800-
...NORTHWEST NORTH DAKOTA...

CITY           SKY/WX    TMP DP  RH WIND       PRES   REMARKS
WILLISTON      CLOUDY    41  35  79 SE7       30.39F
MINOT          CLOUDY    41  34  76 VRB3      30.43R
MINOT AFB      CLOUDY    41  34  75 W6        30.41S
$$

NDZ018>021-031>035-040>046-191800-
...SOUTHWEST NORTH DAKOTA...

CITY           SKY/WX    TMP DP  RH WIND       PRES   REMARKS
BISMARCK       FAIR      46  35  65 CALM      30.43F
DICKINSON      FAIR      50  36  58 VRB6      30.33F
GARRISON         N/A     39  34  82 CALM      30.42S
HETTINGER      FAIR      49  31  49 VRB5      30.35F
$$

NDZ004>008-012>016-024-026-027-054-191800-
...NORTHEAST NORTH DAKOTA...

CITY           SKY/WX    TMP DP  RH WIND       PRES   REMARKS
GRAND FORKS    FAIR      51  33  50 S5        30.42R
GRAND FORKS AF FAIR      54  35  48 SW6       30.41
DEVILS LAKE    FAIR      45  33  63 VRB6      30.42R
$$

NDZ022-023-025-028>030-036>039-047>053-191800-
...SOUTHEAST NORTH DAKOTA...

CITY           SKY/WX    TMP DP  RH WIND       PRES   REMARKS
JAMESTOWN      FAIR      50  31  48 VRB3      30.42R
FARGO          FAIR      50  31  48 W7        30.43S
WAHPETON       FAIR      46  32  57 W6        30.46S
$$




USA.gov is the U.S. government's official web portal to all federal, state and local government web resources and services.